www.pogodaiklimat.ru

Погода и климат >> Архив погоды >> Кувейт >> Экспериментальная ферма


ПОГОДА на Экспериментальной ферме

  • Прогноз погоды на Экспериментальной ферме
  • Монитор погоды на Экспериментальной ферме

АРХИВ ПОГОДЫ на Экспериментальной ферме

Время (UTC), дата Ветер
(напр.,м/с)
 
Видим.   Явления Облачность Т
(С)
Тd
(С)
f
(%)
Тe
(С)
Тes
(С)
Комфортность P
(гПа)
Po
(гПа)
Тmin
(С)
Tmax
(С)
R
(мм)
R24
(мм)
S
(см)
03 20.05 ЮВ 2-3
{7}
н/о н/о +29.2 +16.0 45 +32 +32 душно 1008.8 1006.4 17
06 20.05 В 2-4
{7}
н/о н/о +33.8 +20.2 45 +40 +40 очень
душно
1009.9 1007.5 254
09 20.05 В 2-6
{7}
н/о н/о +36.1 +18.5 36 +40 +40 очень
душно
1009.2 1006.9 402
12 20.05 В 3-7
{7}
н/о н/о +35.4 +12.8 26 +36 +36 очень
жарко
1007.5 1005.2 295
15 20.05 В 3-7
{11}
н/о н/о +31.4 +14.1 35 +33 +33 жарко 1006.9 1004.5 28
18 20.05 Ю 3-6
{11}
н/о н/о +30.6 +12.8 34 +32 +32 жарко 1008.5 1006.1
21 20.05 СЗ 4-12
{12}
н/о н/о +30.3 +16.7 44 +34 +34 очень
душно
1011.3 1008.9 +28.0 +36.9
00 21.05 Ю 1-3
{15}
н/о н/о +28.5 +12.3 37 +30 +30 жарко 1008.9 1006.5
03 21.05 Ю 1-2
{8}
н/о н/о +27.8 +15.4 47 +31 +31 душно 1010.3 1007.9 13
06 21.05 СЗ 2-4
{8}
н/о н/о +33.0 +16.4 37 +36 +36 очень
душно
1010.9 1008.5 260
09 21.05 С 2-4
{5}
н/о н/о +38.8 +9.4 17 +37 +37 очень
жарко
1010.7 1008.4 402
12 21.05 В 2-6
{6}
н/о н/о +37.2 +12.0 22 +37 +37 очень
жарко
1009.1 1006.8 203
15 21.05 Ю 3-6
{7}
н/о н/о +27.0 +17.7 57 +31 +31 душно 1009.3 1006.9 1
18 21.05 Ю 2-5
{11}
н/о н/о +31.0 +9.7 27 +31 +31 жарко 1010.4 1008.0
21 21.05 З 2-4
{17}
н/о н/о +31.8 +8.6 24 +31 +31 жарко 1009.9 1007.5 +25.1 +39.7
00 22.05 СЗ 2-5
{17}
н/о н/о +29.0 +14.1 40 +31 +31 жарко 1010.2 1007.8
03 22.05 ЮВ 1-1
{4}
н/о н/о +25.5 +16.1 56 +29 +29 душно 1010.8 1008.4 14
06 22.05 СЗ 3-7
{7}
н/о н/о +35.6 +9.7 21 +34 +34 очень
жарко
1011.8 1009.5 286
09 22.05 СЗ 3-6
{7}
н/о н/о +39.5 +6.5 13 +37 +37 очень
жарко
1010.4 1008.1 422
12 22.05 З 3-6
{7}
н/о н/о +40.4 +3.3 10 +37 +37 очень
жарко
1008.6 1006.3 319
15 22.05 СЗ 3-6
{9}
н/о н/о +38.1 +5.2 13 +35 +35 очень
жарко
1007.7 1005.4 48
18 22.05 СВ 1-3
{9}
н/о н/о +31.5 +11.0 28 +31 +31 жарко 1009.1 1006.7
21 22.05 ЮВ 1-2
{1}
н/о н/о +29.4 +11.0 32 +30 +30 жарко 1009.0 1006.6 +24.7 +41.2
00 23.05 ЮЗ 1-2
{2}
н/о н/о +27.7 +14.4 44 +30 +30 жарко 1008.6 1006.2
03 23.05 З 2-4
{4}
н/о н/о +29.9 +8.9 27 +29 +29 жарко 1009.4 1007.0 15
06 23.05 СЗ 3-6
{6}
н/о н/о +36.8 +5.3 14 +34 +34 очень
жарко
1009.9 1007.6 287
09 23.05 СЗ 4-8
{9}
н/о н/о +39.6 +5.2 12 +37 +37 очень
жарко
1008.8 1006.5 429
12 23.05 СЗ 3-7
{9}
н/о н/о +40.8 +5.8 12 +38 +38 очень
жарко
1007.1 1004.8 327
15 23.05 СЗ 2-5
{9}
н/о н/о +37.1 +8.3 17 +35 +35 очень
жарко
1006.9 1004.6 48
18 23.05 С 1-3
{9}
н/о н/о +33.2 +8.1 21 +32 +32 жарко 1008.1 1005.7
21 23.05 СЗ 1-2
{4}
н/о н/о +30.4 +10.5 29 +30 +30 жарко 1008.3 1005.9 +26.8 +41.2
00 24.05 СЗ 2-4
{4}
н/о н/о +29.8 +11.1 31 +30 +30 жарко 1007.8 1005.4
03 24.05 СЗ 2-4
{4}
н/о н/о +30.6 +7.2 23 +29 +29 жарко 1008.2 1005.8 15
06 24.05 СЗ 2-5
{6}
н/о н/о +35.5 +9.6 21 +34 +34 очень
жарко
1009.2 1006.9 290
09 24.05 СЗ 1-4
{4}
н/о н/о +41.5 +8.3 14 +39 +39 очень
жарко
1008.0 1005.7 423
12 24.05 СВ 2-5
{6}
н/о н/о +41.6 +3.4 10 +38 +38 очень
жарко
1007.0 1004.7 328
15 24.05 В 1-3
{5}
н/о н/о +38.3 +4.4 12 +35 +35 очень
жарко
1006.9 1004.6 45
18 24.05 ЮВ 1-3
{5}
н/о н/о +34.6 +4.4 15 +32 +32 жарко 1008.1 1005.8
21 24.05 штиль 0-1
{3}
н/о н/о +29.4 +8.6 27 +29 +29 жарко 1008.6 1006.2 +27.1 +43.0
00 25.05 Ю 1-2
{3}
н/о н/о +28.7 +7.9 27 +28 +28 жарко 1008.7 1006.3
03 25.05 ЮВ 1-3
{3}
н/о н/о +28.5 +8.9 29 +28 +28 жарко 1010.1 1007.7 15
06 25.05 Ю 2-4
{5}
н/о н/о +38.5 +4.6 12 +35 +35 очень
жарко
1010.6 1008.3 280
09 25.05 ЮВ 2-5
{5}
н/о н/о +43.5 +1.7 8 +40 +40 очень
жарко
1009.1 1006.8 415
12 25.05 В 2-5
{7}
н/о н/о +44.5 +3.6 8 +41 +41 опасность
перегрева
1007.2 1004.9 298
15 25.05 В 1-3
{5}
н/о н/о +38.7 +7.9 15 +36 +36 очень
жарко
1006.4 1004.1 39
18 25.05 ЮВ 1-3
{5}
н/о н/о +37.0 +6.9 16 +35 +35 очень
жарко
1007.2 1004.9
21 25.05 Ю 1-1
{5}
н/о н/о +31.2 +10.5 28 +31 +31 жарко 1007.2 1004.8 +26.4 +45.6
00 26.05 В 1-2
{5}
н/о н/о +29.9 +5.2 21 +28 +28 жарко 1007.0 1004.6
03 26.05 ЮЗ 1-2
{3}
н/о н/о +30.1 +7.2 24 +29 +29 жарко 1007.7 1005.3 15
06 26.05 ЮЗ 2-4
{4}
н/о н/о +41.4 +2.8 9 +38 +38 очень
жарко
1008.2 1005.9 269
09 26.05 СЗ 2-5
{7}
н/о н/о +44.5 +5.1 9 +41 +41 опасность
перегрева
1007.0 1004.7 411
12 26.05 В 2-6
{7}
н/о н/о +45.0 +4.8 9 +42 +42 опасность
перегрева
1004.8 1002.5 304
15 26.05 В 2-4
{6}
н/о н/о +40.7 +2.7 10 +37 +37 очень
жарко
1004.8 1002.5 41
18 26.05 Ю 1-3
{6}
н/о н/о +37.5 +3.3 12 +34 +34 очень
жарко
1006.1 1003.8
21 26.05 ЮВ 3-8
{13}
н/о н/о +35.9 +8.9 19 +34 +34 очень
жарко
1006.4 1004.1 +28.3 +46.8
00 27.05 Ю 1-2
{13}
н/о н/о +31.2 +5.3 20 +29 +29 жарко 1006.2 1003.8

 

Местоположение метеостанции Экспериментальная ферма (Кувейт): широта 29.29 долгота 47.94 высота над уровнем моря 21 м.

В архиве по умолчанию представлена погода на Экспериментальной ферме за последнюю неделю. Архивные данные за месяц целиком и за предыдущие месяцы, начиная с января 2011 года, Вы можете получить, выбрав интересующий диапазон дат из раскрывающегося списка и нажав кнопку "Ввод!".


*Определитесь, кто Вы:
робот инопланетянин человек

Внимание! Время в таблицах - всемирное. Для получения местного времени необходимо прибавить поправку, которая равна 3 ч.

Смотрите также архив погоды в соседних городах и на ближайших метеорологических станциях:

Погода в Эль-Кувейте (Кувейт) (8 км)
Погода в Кувейт Сити (Кувейт) (12 км)
Погода в Аль-Шуаиба (Кувейт) (17 км)
Погода в Сулайбии (Кувейт) (21 км)
Погода в Эль-Джахра (Кувейт) (26 км)
Погода Остров Файлака (Кувейт) (39 км)
Погода в Минагише (Кувейт) (47 км)
Погода на Метеостанции Jal Aliyah (Кувейт) (50 км)
Погода на Метеостанции Sabriyah (Кувейт) (52 км)
Погода в Порту Juluiah (Кувейт) (57 км)

Пояснения к столбцам:

Ветер - указаны скорость ветра в м/с - средняя за 10 мин, порывы в срок и между сроками (в фигурных скобках) и направление, откуда дует ветер: С - северный, СВ - северо-восточный, В - восточный, ЮВ - юго-восточный, Ю - южный, ЮЗ - юго-западный, З - западный, СЗ - северо-западный.
Видимость - горизонтальная дальность видимости в метрах или километрах. При видимости от 1 до 10 км при отсутствии осадков обычно наблюдается дымка, при ухудшении видимости до 1 км и менее - туман. В сухую погоду видимость может ухудшаться дымом, пылью или мглою.
Явления - указаны атмосферные явления, наблюдавшиеся в срок или в последний час перед сроком; фигурными скобками обозначены явления, наблюдавшиеся между сроками (за 1-3 часа до срока); квадратными скобками обозначены град или гололедные отложения с указанием их диаметра в мм.
Облачность - указаны через наклонную черту общая и нижняя облачность в баллах и высота нижней границы облаков в метрах; квадратными скобками обозначены формы облаков: Ci - перистые, Cs - перисто-слоистые, Cc - перисто-кучевые, Ac - высококучевые, As - высокослоистые, Sc - слоисто-кучевые, Ns - слоисто-дождевые, Cu - кучевые, Cb - кучево-дождевые. Подробнее классификацию облаков см. в Атласе облаков (PDF).
T - Температура воздуха - температура, измеренная на высоте 2 м над землей.
Td - Температура точки росы - температура, при понижении до которой содержащийся в воздухе водяной пар достигнет насыщения.
f - Относительная влажность воздуха - влажноcть воздуха, измеренная на высоте 2 м над землей.
Te - Эффективная температура - температура, которую ощущает одетый по сезону человек в тени. Характеристика душности погоды. При расчете учитывается влияние влажности воздуха и скорости ветра на теплоощущения человека.
Tes - Эффективная температура на солнце - температура, которую ощущает человек, с поправкой на солнечный нагрев. Характеристика знойности погоды. Зависит от высоты солнца над горизонтом, облачности и скорости ветра. Ночью, в пасмурную погоду, а также при ветре 12 м/с и более поправка равна нулю.
P - Атмосферное давление - приведенное к уровню моря атмосферное давление.
Po - Атмосферное давление - измеренное на уровне метеостанции атмосферное давление.
Tmin - Минимальная температура - минимум температуры воздуха на высоте 2 м над землей.
Tmax - Максимальная температура - максимум температуры воздуха на высоте 2 м над землей.
R - Количество осадков - Количество выпавших осадков за период времени, мм. При наведении курсора мыши на число - период времени, за который выпало указанное количество осадков.
R24 - Количество осадков - Количество выпавших осадков за 24 часа, мм.
S - Снежный покров - Высота снежного покрова, см. При наведении курсора мыши на число - состояние снежного покрова и степень покрытия местности в баллах.